SCP
0 0 0 0 0 0 0 0 0 0 0 0 0 0 0 0 0 0 -0 0 -0 -1 -0 -0 -1 -1 -1 -1 -1 -1 -1 -1 -1 -1 -1 -0 -0 -0 -0 -0 -0 -0 -0 -0 -0 -0 -0 0 0
0 0 0 0 0 0 0 0 0 0 0 0 0 0 0 0 0 0 0 0 -0 -1 -1 -0 -1 -1 -1 -1 -1 -1 -1 -1 -1 -1 -0 -0 -0 -0 -0 -0 -0 -0 -0 -0 -0 0 0 0 0
0 0 0 0 0 0 0 0 0 0 0 0 0 0 0 0 0 0 0 -0 -0 -0 -0 -0 -1 -1 -1 -1 -1 -1 -1 -1 -1 -0 -0 -0 -0 -0 -0 -0 -0 -0 -0 -0 0 0 0 0 0
0 0 0 0 0 0 0 0 0 0 0 0 0 0 0 0 0 0 -0 -0 -0 -0 -0 -1 -1 -0 -0 -1 -1 -1 -1 -1 -1 -0 -0 -0 -0 -0 -0 -0 -0 -0 -0 -0 0 0 0 0 -0
0 0 0 0 0 0 0 0 0 0 0 0 0 0 0 0 0 -0 -0 -0 -0 -0 -0 -0 -1 -0 -0 -1 -1 -1 -1 -1 -1 -0 -0 -0 -0 -0 -0 -0 -0 -0 -0 0 0 0 -0 -0 -0
0 0 0 0 0 0 0 0 0 0 0 0 0 0 0 1 0 0 -0 -0 -0 -0 -0 -0 -0 -0 -0 -0 -0 -0 -0 -0 -0 -0 -0 -0 -0 -0 -0 0 0 -0 -0 0 0 -0 -0 -0 -0
0 0 0 0 0 0 0 0 0 0 0 0 0 0 0 1 1 0 -0 -0 -0 0 -0 -0 -0 -0 -0 -0 -0 -0 -0 -0 -0 -0 -0 -0 -0 -0 -0 -0 0 -0 -0 -0 -0 -0 -0 -0 -0
0 0 0 0 0 0 0 0 0 0 0 0 0 0 0 1 1 0 0 0 0 -0 0 0 0 -0 -0 0 -0 -0 -0 -0 -0 -0 -0 -0 -0 -0 -0 0 0 0 -0 0 0 0 -0 0 -0
0 0 0 0 0 0 0 0 0 0 0 0 0 0 0 0 0 1 1 0 0 0 0 0 0 0 0 0 0 -0 -0 -0 -0 -0 -0 0 0 0 0 0 0 0 0 0 0 0 0 0 0
0 0 0 0 0 0 0 0 0 0 0 0 0 1 0 0 1 1 1 1 0 0 0 0 0 0 0 0 0 0 0 0 0 0 0 0 0 0 0 0 0 0 0 0 0 0 0 0 0
0 0 0 0 0 0 0 0 0 0 0 0 0 0 3 1 1 1 1 0 0 0 0 0 0 0 0 0 0 0 0 0 0 0 0 0 0 0 0 0 0 0 0 0 0 0 0 0 0
0 0 0 0 0 0 0 0 0 0 0 0 0 0 0 3 1 1 1 1 0 0 0 0 0 0 0 0 0 1 1 1 0 0 0 0 0 0 0 0 0 0 0 0 0 0 0 0 0
0 0 0 0 0 0 0 0 0 0 0 0 0 0 0 0 3 2 1 1 1 0 0 0 0 0 0 1 0 1 1 1 1 1 0 0 0 0 0 0 0 0 0 0 0 0 0 0 0
0 0 0 0 0 0 0 0 0 0 0 0 0 0 0 0 0 0 2 2 1 1 1 0 1 1 1 1 1 1 1 1 1 1 1 1 1 1 0 0 0 0 0 0 0 0 0 0 0
0 0 0 0 0 0 0 0 0 0 0 0 0 0 0 0 0 0 0 2 1 1 1 1 1 1 1 1 1 1 1 2 1 1 1 1 1 1 1 0 1 0 0 0 0 0 0 0 0
0 0 0 0 0 0 0 0 0 0 0 0 0 0 0 0 0 0 0 0 0 1 1 1 1 1 1 2 2 2 2 2 2 2 1 1 1 1 0 0 0 1 1 0 0 0 0 0 0
0 0 0 0 0 0 0 0 0 -0 -0 0 0 0 0 0 0 0 0 0 0 0 1 2 2 2 2 2 3 2 2 2 2 2 1 1 1 1 1 0 0 1 1 1 0 0 0 0 0
0 0 0 0 0 0 0 0 0 0 0 0 0 0 0 0 0 0 0 0 0 0 0 2 2 3 4 4 5 4 3 2 2 1 1 1 1 1 1 1 1 1 1 1 0 0 1 0 1
0 0 0 0 0 0 0 0 0 0 0 0 0 0 0 0 0 0 0 0 0 0 0 1 3 3 4 5 4 4 3 3 2 1 1 1 1 1 1 1 1 1 1 1 1 1 1 1 1
0 0 0 0 0 0 0 0 0 0 0 0 0 0 0 0 0 0 0 0 0 0 0 1 2 2 3 2 2 3 2 2 1 1 1 0 1 1 1 1 1 1 1 1 1 1 1 1 0
0 0 0 0 0 0 0 0 0 0 0 0 0 0 0 0 0 0 0 0 0 0 0 0 1 1 1 2 3 2 2 1 1 0 1 1 0 1 1 1 1 1 1 1 1 0 1 1 0
0 0 0 0 0 0 0 0 0 0 0 0 0 0 0 0 0 0 0 0 0 0 0 0 1 1 1 1 1 1 1 2 1 1 1 1 0 0 0 0 1 1 1 1 1 1 1 0 1
0 0 0 0 0 0 0 0 0 0 0 0 0 0 0 0 0 0 0 0 0 0 0 0 1 1 1 1 1 1 1 1 1 1 1 0 0 0 0 0 0 0 0 0 0 0 0 1 1
0 0 0 0 0 0 0 0 0 0 0 0 0 0 0 0 0 0 0 0 0 0 0 1 1 1 1 1 1 1 1 1 1 0 0 0 0 0 0 0 0 0 0 0 0 0 0 0 1
0 0 0 0 0 0 0 0 0 0 0 0 0 0 0 0 0 0 0 0 0 0 1 1 1 1 1 1 1 1 1 1 1 1 1 1 1 0 0 0 0 0 0 0 0 0 0 0 0
0 0 0 0 0 0 0 0 0 0 -0 0 0 0 0 0 1 1 1 1 1 1 1 1 1 1 1 1 1 1 1 1 1 1 1 1 0 0 0 0 0 0 0 0 0 0 0 0 0
0 0 0 0 0 0 0 0 0 0 0 0 0 0 1 0 1 1 1 2 1 1 1 1 1 1 1 1 1 1 1 1 1 0 0 0 0 0 0 0 0 0 0 0 0 0 0 0 0
0 0 0 0 0 0 0 0 0 0 0 0 0 0 0 0 1 1 1 1 1 2 1 1 1 0 0 1 1 0 0 0 0 0 0 0 0 0 0 0 0 0 0 0 0 0 0 0 0
0 0 0 0 0 0 0 0 0 0 0 0 0 0 0 0 1 0 0 0 0 1 1 0 0 0 0 0 0 0 0 0 0 0 0 0 0 0 0 0 0 0 0 0 0 0 0 0 0
0 0 0 0 0 0 0 0 0 0 0 0 0 0 0 0 0 0 1 0 0 0 0 0 0 0 0 0 0 0 0 0 0 0 0 0 0 0 0 0 0 0 0 0 0 0 0 0 0
Wind_Speed_500mb
13 9 3 4 7 3 6 7 6 5 2 7 29 11 8 8 4 8 10 47 50 65 67 61 57 50 47 44 43 46 48 46 40 34 28 26 31 40 41 38 35 33 31 30 28 29 32 34 37
8 3 7 4 8 13 12 8 19 7 16 24 9 3 11 3 3 1 38 42 59 65 68 64 59 52 46 43 42 44 46 44 39 34 30 31 35 42 40 36 33 31 31 29 28 30 33 37 35
3 8 7 6 7 22 12 18 12 6 13 15 13 8 5 6 6 10 19 43 66 66 65 63 59 52 46 44 43 43 43 41 39 35 33 36 39 42 38 34 32 30 29 28 28 29 32 32 27
7 8 7 10 28 18 14 3 13 3 2 5 11 12 7 5 5 26 39 47 66 66 64 63 59 52 47 44 43 42 41 40 39 38 38 40 43 42 37 33 31 29 27 26 26 27 28 27 25
12 7 7 11 29 9 12 6 9 6 11 16 12 9 12 5 7 25 41 50 62 66 66 64 59 54 48 44 43 40 38 40 40 41 42 43 46 42 37 33 30 28 27 26 25 25 25 25 22
7 3 8 30 33 6 10 16 13 15 8 12 11 12 5 11 18 21 43 48 60 63 67 65 61 54 49 44 40 37 35 38 42 43 44 47 47 41 36 31 29 27 26 26 26 25 25 26 24
8 7 17 15 7 11 11 13 19 14 8 6 9 5 2 13 24 23 52 49 63 66 68 67 64 57 50 44 39 35 32 35 40 41 44 48 47 42 37 32 29 27 26 26 26 27 27 27 27
8 6 10 17 18 14 6 8 3 12 9 8 9 7 2 7 26 30 56 50 62 68 68 68 66 62 56 49 42 36 31 30 36 38 42 46 46 43 38 34 31 28 27 28 28 28 29 29 29
14 12 24 26 17 9 6 7 2 1 4 6 5 10 18 18 26 40 56 50 64 70 70 70 68 66 60 54 48 41 36 32 31 35 39 43 45 44 40 37 32 28 26 27 28 28 29 29 31
16 14 24 11 18 6 8 2 6 5 8 4 6 10 14 11 26 42 57 55 66 71 72 72 70 68 64 59 55 50 46 43 40 39 41 44 45 44 41 38 35 31 28 27 28 29 29 31 32
16 24 22 15 21 12 11 11 7 10 16 12 6 17 6 7 25 36 46 48 58 63 65 70 71 69 67 65 62 59 56 53 50 45 43 41 44 45 44 43 41 38 33 32 31 31 31 31 31
15 25 36 20 27 25 20 10 18 22 27 15 24 28 16 14 21 35 43 50 53 57 60 65 69 70 69 68 66 64 63 60 58 55 51 49 47 47 47 47 45 43 40 39 37 36 34 32 32
27 19 22 44 44 43 34 32 28 41 41 39 48 47 36 26 20 27 32 38 47 52 52 57 63 67 69 70 69 69 67 64 61 59 56 55 54 51 47 46 45 44 44 45 45 43 40 36 36
9 39 41 29 24 15 25 34 37 34 43 40 39 42 29 26 29 25 26 39 42 43 41 43 52 59 65 68 70 72 69 66 65 62 60 59 57 55 52 50 48 46 44 43 44 45 44 43 42
12 16 19 24 16 20 31 48 46 43 46 38 40 49 45 38 34 36 28 27 32 41 44 45 47 56 60 62 66 69 69 68 67 66 63 61 60 59 58 55 53 49 45 43 42 43 48 51 47
11 11 30 22 27 14 26 54 4 26 49 50 45 45 52 48 40 36 33 32 33 35 35 38 43 52 64 68 69 71 70 68 66 65 66 61 62 63 63 61 58 53 48 45 46 45 46 49 47
16 24 20 20 22 24 34 30 7 23 43 41 35 38 38 53 47 41 37 37 34 40 45 47 47 49 57 69 73 74 72 69 65 61 62 60 58 65 63 63 59 51 48 49 49 47 45 43 46
23 15 22 19 16 33 39 46 36 21 20 30 39 46 45 47 53 48 43 50 49 44 48 51 49 48 53 63 74 78 78 75 68 62 57 56 55 59 59 57 54 50 51 52 50 47 46 47 50
6 30 26 13 34 21 36 36 33 41 41 44 43 46 47 58 61 54 47 40 51 53 51 58 59 53 56 62 70 76 80 75 73 64 57 55 53 52 48 50 51 49 49 47 44 43 40 38 45
35 32 26 16 24 15 28 32 23 26 32 42 43 47 51 54 54 51 52 53 48 52 49 57 59 56 51 54 58 64 71 75 69 65 59 54 47 45 44 44 43 41 40 40 39 41 46 49 44
39 41 33 25 13 25 25 44 37 28 41 32 45 49 48 54 59 61 57 55 48 42 47 49 52 53 52 54 55 56 59 61 68 64 55 49 46 45 43 41 41 37 38 44 46 43 46 50 42
36 31 30 31 22 31 23 22 27 23 35 34 40 48 52 53 60 64 60 50 44 43 42 49 51 52 51 51 52 52 52 55 59 60 49 41 41 45 40 39 37 37 42 41 40 45 43 44 50
27 25 34 32 30 23 30 21 34 15 30 30 32 36 46 57 67 62 55 43 38 40 41 50 54 53 53 53 50 45 48 48 44 41 28 31 27 25 29 39 40 41 42 43 43 48 47 43 44
18 21 29 25 27 29 40 28 27 32 33 30 26 26 37 45 43 46 43 36 37 36 39 48 51 52 51 50 45 33 33 39 34 24 27 22 22 28 32 33 39 35 37 40 43 38 40 39 40
31 27 10 14 15 33 17 25 40 16 18 12 21 36 14 17 31 35 36 36 36 39 45 50 50 49 44 36 30 26 26 27 26 28 26 22 27 29 23 19 18 20 22 25 30 33 36 39 41
46 35 15 21 21 21 26 23 28 25 47 27 20 13 9 13 25 30 30 35 41 50 53 51 46 41 37 34 29 26 24 24 23 25 23 22 21 21 22 23 22 27 31 32 33 33 37 41 41
35 39 23 7 4 14 25 33 20 9 10 8 12 14 16 19 27 34 37 41 43 52 54 51 46 42 36 32 27 24 17 12 13 13 9 10 14 17 23 27 29 26 26 29 27 26 25 29 32
22 36 22 8 16 20 17 32 18 17 11 10 15 14 20 30 40 46 49 55 54 53 52 50 43 37 33 29 30 28 27 23 17 13 9 5 3 4 7 10 13 16 16 17 17 17 22 26 29
24 21 16 19 11 16 14 13 8 9 4 11 13 23 27 36 41 54 59 59 59 58 55 51 46 43 41 36 37 34 32 28 25 24 25 20 13 11 10 9 7 4 5 11 15 19 22 20 22
47 34 28 17 17 11 12 10 4 1 6 15 23 32 38 46 46 46 50 57 59 62 64 64 63 60 54 49 44 42 39 34 29 22 18 14 12 13 14 15 13 11 11 11 12 14 13 14 17
Wind_Direction_500mb
279 287 257 189 225 242 237 235 287 253 317 352 303 230 285 305 318 336 180 171 174 170 169 170 169 172 172 173 173 170 169 170 170 171 169 162 158 158 156 152 150 148 147 144 140 137 136 134 131
277 241 154 151 224 226 230 244 235 255 318 329 348 270 243 308 251 169 149 167 170 171 170 171 171 172 176 180 180 175 173 174 176 177 174 167 165 163 158 157 156 154 151 148 144 143 140 139 135
231 173 162 215 207 229 234 210 235 237 310 348 350 334 309 332 274 189 172 168 170 174 172 173 172 174 177 180 179 178 179 179 181 179 178 172 170 166 161 161 160 161 159 155 152 150 148 151 146
162 141 81 224 222 228 224 215 165 320 327 333 333 285 294 292 281 170 165 168 171 175 175 175 175 175 176 178 179 180 182 184 185 184 181 176 173 170 166 165 165 166 166 165 162 161 161 161 157
179 146 196 236 239 247 230 224 209 273 297 321 355 320 306 248 120 173 172 171 174 177 177 178 177 177 178 179 180 182 187 189 188 185 182 178 175 174 172 171 171 172 174 175 175 175 174 176 175
175 162 196 232 226 227 234 228 241 261 286 310 330 310 274 204 171 190 177 174 179 180 179 180 180 181 182 182 183 184 187 188 186 185 184 180 178 178 179 180 179 180 182 185 187 188 188 190 195
218 198 227 251 243 242 224 214 224 230 221 223 332 265 266 203 183 196 177 179 182 184 183 183 183 184 186 186 187 187 187 188 188 188 186 184 183 184 186 187 188 190 191 194 196 199 202 205 209
188 225 225 233 228 242 194 192 153 181 182 310 340 246 199 335 195 187 182 183 185 187 188 187 187 186 187 188 191 192 191 192 193 191 191 190 190 192 194 197 198 199 200 202 203 206 210 214 220
168 221 228 230 209 210 190 200 118 276 205 309 357 309 276 280 205 180 184 182 185 189 192 192 192 192 192 193 194 196 196 194 194 198 198 197 200 201 203 207 210 210 211 213 214 215 218 221 226
205 223 219 227 223 212 171 225 322 313 321 194 208 19 351 228 196 187 187 186 187 191 193 196 196 196 196 196 198 199 201 201 201 202 202 205 209 212 215 218 219 219 220 223 224 225 225 227 230
195 229 221 208 215 227 230 259 249 268 270 242 99 13 326 254 201 194 189 195 193 196 200 200 200 201 202 203 204 204 206 206 206 207 208 210 213 217 220 223 226 228 228 232 233 234 234 234 236
228 233 233 232 225 238 227 241 252 239 244 222 283 307 306 251 216 198 194 196 195 200 205 206 206 206 207 210 211 213 213 213 213 214 213 214 216 220 224 228 231 234 236 239 241 241 241 241 241
230 232 233 243 251 259 262 243 254 258 253 261 273 282 277 258 231 214 208 204 201 206 210 213 212 212 213 216 217 219 221 222 222 222 221 222 224 226 229 232 234 237 240 242 244 244 244 245 247
228 229 242 250 248 248 262 264 234 250 261 253 255 261 259 246 231 213 215 221 219 220 221 224 222 220 220 221 223 225 226 229 229 230 231 231 232 234 235 237 239 241 244 247 250 252 251 251 250
238 254 242 231 240 250 260 270 239 238 244 249 251 259 256 251 246 232 227 225 220 224 228 227 226 224 227 229 230 230 231 234 236 237 237 236 238 239 239 241 243 246 249 253 257 257 253 251 252
208 219 241 226 212 221 192 257 296 226 217 234 243 245 248 247 242 234 227 232 233 232 233 238 238 233 229 228 230 232 232 233 237 239 242 241 241 241 240 243 245 247 250 256 259 262 262 258 256
206 235 226 252 214 207 201 262 308 202 199 218 230 231 234 243 239 229 234 239 237 237 236 237 239 240 235 232 233 234 234 233 236 240 242 241 245 242 241 244 247 251 255 257 261 265 263 262 261
215 221 238 241 196 221 218 242 251 241 210 235 249 253 246 233 230 235 246 247 244 238 236 238 233 237 240 237 235 235 234 234 234 238 242 240 242 241 241 246 251 253 255 259 261 265 265 265 266
214 231 238 236 239 241 239 252 248 258 244 241 247 251 250 249 239 240 238 244 240 233 229 228 225 228 234 239 237 235 235 233 234 236 243 241 243 244 245 249 252 253 255 259 264 261 266 272 272
234 245 235 269 266 254 268 267 256 251 257 235 234 235 243 248 247 240 244 249 250 237 232 215 217 222 227 239 242 238 237 233 233 236 240 241 242 243 247 250 250 251 252 257 264 264 268 273 278
225 234 239 240 261 267 279 275 260 244 253 240 235 235 236 240 244 247 247 249 243 230 212 210 215 217 220 231 236 235 236 234 233 235 242 243 244 247 249 248 248 260 268 270 269 270 268 274 278
221 221 224 231 236 247 232 269 249 251 249 250 239 235 236 241 246 240 243 238 227 225 216 213 214 215 217 223 233 234 232 234 232 235 240 249 256 260 251 260 264 266 272 266 267 262 264 269 268
231 205 208 216 223 241 223 251 264 243 249 248 259 246 242 243 244 232 233 227 221 221 221 213 208 211 216 221 229 232 230 233 231 232 243 254 267 259 256 261 260 257 264 258 269 260 263 266 265
199 232 223 230 230 240 233 231 265 240 246 252 260 276 257 242 224 215 211 213 218 215 205 195 198 202 209 218 226 232 233 231 233 234 245 249 258 253 258 256 261 242 267 267 274 256 260 261 262
210 204 175 201 209 235 198 218 242 240 236 227 296 303 288 213 185 183 188 184 188 182 176 179 187 193 201 210 220 218 212 209 215 229 239 246 251 250 245 254 251 258 265 266 258 264 259 258 268
203 197 196 205 206 220 205 232 236 228 256 272 268 267 179 163 156 155 156 158 159 162 163 167 172 179 187 194 190 188 192 200 212 230 241 245 247 256 261 254 258 267 267 266 267 260 254 262 270
191 209 203 292 241 218 213 244 262 211 239 169 144 152 127 125 136 128 129 138 142 148 152 155 158 158 158 162 164 176 182 186 198 213 216 243 266 271 270 264 261 264 265 265 272 273 272 266 265
193 184 190 188 215 219 216 234 236 192 196 147 138 136 119 117 123 129 133 134 136 137 138 137 133 132 136 137 137 142 143 142 145 153 167 191 230 292 283 261 254 253 256 265 261 268 275 279 278
193 186 189 180 239 226 235 216 336 259 156 146 140 117 104 109 118 129 132 130 133 132 131 128 127 124 123 126 129 133 129 127 128 126 115 99 84 59 43 49 47 16 296 277 280 283 277 278 289
199 179 189 197 191 232 274 238 9 39 141 149 121 114 110 108 108 113 116 119 120 120 119 119 119 117 114 116 121 120 119 119 116 109 96 85 62 43 22 7 357 348 338 335 331 327 324 308 298
Wind_Speed_850mb
13 9 3 4 7 3 6 7 6 5 2 7 29 11 8 8 4 8 10 47 50 65 67 61 57 50 47 44 43 46 48 46 40 34 28 26 31 40 41 38 35 33 31 30 28 29 32 34 37
8 3 7 4 8 13 12 8 19 7 16 24 9 3 11 3 3 1 38 42 59 65 68 64 59 52 46 43 42 44 46 44 39 34 30 31 35 42 40 36 33 31 31 29 28 30 33 37 35
3 8 7 6 7 22 12 18 12 6 13 15 13 8 5 6 6 10 19 43 66 66 65 63 59 52 46 44 43 43 43 41 39 35 33 36 39 42 38 34 32 30 29 28 28 29 32 32 27
7 8 7 10 28 18 14 3 13 3 2 5 11 12 7 5 5 26 39 47 66 66 64 63 59 52 47 44 43 42 41 40 39 38 38 40 43 42 37 33 31 29 27 26 26 27 28 27 25
12 7 7 11 29 9 12 6 9 6 11 16 12 9 12 5 7 25 41 50 62 66 66 64 59 54 48 44 43 40 38 40 40 41 42 43 46 42 37 33 30 28 27 26 25 25 25 25 22
7 3 8 30 33 6 10 16 13 15 8 12 11 12 5 11 18 21 43 48 60 63 67 65 61 54 49 44 40 37 35 38 42 43 44 47 47 41 36 31 29 27 26 26 26 25 25 26 24
8 7 17 15 7 11 11 13 19 14 8 6 9 5 2 13 24 23 52 49 63 66 68 67 64 57 50 44 39 35 32 35 40 41 44 48 47 42 37 32 29 27 26 26 26 27 27 27 27
8 6 10 17 18 14 6 8 3 12 9 8 9 7 2 7 26 30 56 50 62 68 68 68 66 62 56 49 42 36 31 30 36 38 42 46 46 43 38 34 31 28 27 28 28 28 29 29 29
14 12 24 26 17 9 6 7 2 1 4 6 5 10 18 18 26 40 56 50 64 70 70 70 68 66 60 54 48 41 36 32 31 35 39 43 45 44 40 37 32 28 26 27 28 28 29 29 31
16 14 24 11 18 6 8 2 6 5 8 4 6 10 14 11 26 42 57 55 66 71 72 72 70 68 64 59 55 50 46 43 40 39 41 44 45 44 41 38 35 31 28 27 28 29 29 31 32
16 24 22 15 21 12 11 11 7 10 16 12 6 17 6 7 25 36 46 48 58 63 65 70 71 69 67 65 62 59 56 53 50 45 43 41 44 45 44 43 41 38 33 32 31 31 31 31 31
15 25 36 20 27 25 20 10 18 22 27 15 24 28 16 14 21 35 43 50 53 57 60 65 69 70 69 68 66 64 63 60 58 55 51 49 47 47 47 47 45 43 40 39 37 36 34 32 32
27 19 22 44 44 43 34 32 28 41 41 39 48 47 36 26 20 27 32 38 47 52 52 57 63 67 69 70 69 69 67 64 61 59 56 55 54 51 47 46 45 44 44 45 45 43 40 36 36
9 39 41 29 24 15 25 34 37 34 43 40 39 42 29 26 29 25 26 39 42 43 41 43 52 59 65 68 70 72 69 66 65 62 60 59 57 55 52 50 48 46 44 43 44 45 44 43 42
12 16 19 24 16 20 31 48 46 43 46 38 40 49 45 38 34 36 28 27 32 41 44 45 47 56 60 62 66 69 69 68 67 66 63 61 60 59 58 55 53 49 45 43 42 43 48 51 47
11 11 30 22 27 14 26 54 4 26 49 50 45 45 52 48 40 36 33 32 33 35 35 38 43 52 64 68 69 71 70 68 66 65 66 61 62 63 63 61 58 53 48 45 46 45 46 49 47
16 24 20 20 22 24 34 30 7 23 43 41 35 38 38 53 47 41 37 37 34 40 45 47 47 49 57 69 73 74 72 69 65 61 62 60 58 65 63 63 59 51 48 49 49 47 45 43 46
23 15 22 19 16 33 39 46 36 21 20 30 39 46 45 47 53 48 43 50 49 44 48 51 49 48 53 63 74 78 78 75 68 62 57 56 55 59 59 57 54 50 51 52 50 47 46 47 50
6 30 26 13 34 21 36 36 33 41 41 44 43 46 47 58 61 54 47 40 51 53 51 58 59 53 56 62 70 76 80 75 73 64 57 55 53 52 48 50 51 49 49 47 44 43 40 38 45
35 32 26 16 24 15 28 32 23 26 32 42 43 47 51 54 54 51 52 53 48 52 49 57 59 56 51 54 58 64 71 75 69 65 59 54 47 45 44 44 43 41 40 40 39 41 46 49 44
39 41 33 25 13 25 25 44 37 28 41 32 45 49 48 54 59 61 57 55 48 42 47 49 52 53 52 54 55 56 59 61 68 64 55 49 46 45 43 41 41 37 38 44 46 43 46 50 42
36 31 30 31 22 31 23 22 27 23 35 34 40 48 52 53 60 64 60 50 44 43 42 49 51 52 51 51 52 52 52 55 59 60 49 41 41 45 40 39 37 37 42 41 40 45 43 44 50
27 25 34 32 30 23 30 21 34 15 30 30 32 36 46 57 67 62 55 43 38 40 41 50 54 53 53 53 50 45 48 48 44 41 28 31 27 25 29 39 40 41 42 43 43 48 47 43 44
18 21 29 25 27 29 40 28 27 32 33 30 26 26 37 45 43 46 43 36 37 36 39 48 51 52 51 50 45 33 33 39 34 24 27 22 22 28 32 33 39 35 37 40 43 38 40 39 40
31 27 10 14 15 33 17 25 40 16 18 12 21 36 14 17 31 35 36 36 36 39 45 50 50 49 44 36 30 26 26 27 26 28 26 22 27 29 23 19 18 20 22 25 30 33 36 39 41
46 35 15 21 21 21 26 23 28 25 47 27 20 13 9 13 25 30 30 35 41 50 53 51 46 41 37 34 29 26 24 24 23 25 23 22 21 21 22 23 22 27 31 32 33 33 37 41 41
35 39 23 7 4 14 25 33 20 9 10 8 12 14 16 19 27 34 37 41 43 52 54 51 46 42 36 32 27 24 17 12 13 13 9 10 14 17 23 27 29 26 26 29 27 26 25 29 32
22 36 22 8 16 20 17 32 18 17 11 10 15 14 20 30 40 46 49 55 54 53 52 50 43 37 33 29 30 28 27 23 17 13 9 5 3 4 7 10 13 16 16 17 17 17 22 26 29
24 21 16 19 11 16 14 13 8 9 4 11 13 23 27 36 41 54 59 59 59 58 55 51 46 43 41 36 37 34 32 28 25 24 25 20 13 11 10 9 7 4 5 11 15 19 22 20 22
47 34 28 17 17 11 12 10 4 1 6 15 23 32 38 46 46 46 50 57 59 62 64 64 63 60 54 49 44 42 39 34 29 22 18 14 12 13 14 15 13 11 11 11 12 14 13 14 17
Wind_Direction_850mb
279 287 257 189 225 242 237 235 287 253 317 352 303 230 285 305 318 336 180 171 174 170 169 170 169 172 172 173 173 170 169 170 170 171 169 162 158 158 156 152 150 148 147 144 140 137 136 134 131
277 241 154 151 224 226 230 244 235 255 318 329 348 270 243 308 251 169 149 167 170 171 170 171 171 172 176 180 180 175 173 174 176 177 174 167 165 163 158 157 156 154 151 148 144 143 140 139 135
231 173 162 215 207 229 234 210 235 237 310 348 350 334 309 332 274 189 172 168 170 174 172 173 172 174 177 180 179 178 179 179 181 179 178 172 170 166 161 161 160 161 159 155 152 150 148 151 146
162 141 81 224 222 228 224 215 165 320 327 333 333 285 294 292 281 170 165 168 171 175 175 175 175 175 176 178 179 180 182 184 185 184 181 176 173 170 166 165 165 166 166 165 162 161 161 161 157
179 146 196 236 239 247 230 224 209 273 297 321 355 320 306 248 120 173 172 171 174 177 177 178 177 177 178 179 180 182 187 189 188 185 182 178 175 174 172 171 171 172 174 175 175 175 174 176 175
175 162 196 232 226 227 234 228 241 261 286 310 330 310 274 204 171 190 177 174 179 180 179 180 180 181 182 182 183 184 187 188 186 185 184 180 178 178 179 180 179 180 182 185 187 188 188 190 195
218 198 227 251 243 242 224 214 224 230 221 223 332 265 266 203 183 196 177 179 182 184 183 183 183 184 186 186 187 187 187 188 188 188 186 184 183 184 186 187 188 190 191 194 196 199 202 205 209
188 225 225 233 228 242 194 192 153 181 182 310 340 246 199 335 195 187 182 183 185 187 188 187 187 186 187 188 191 192 191 192 193 191 191 190 190 192 194 197 198 199 200 202 203 206 210 214 220
168 221 228 230 209 210 190 200 118 276 205 309 357 309 276 280 205 180 184 182 185 189 192 192 192 192 192 193 194 196 196 194 194 198 198 197 200 201 203 207 210 210 211 213 214 215 218 221 226
205 223 219 227 223 212 171 225 322 313 321 194 208 19 351 228 196 187 187 186 187 191 193 196 196 196 196 196 198 199 201 201 201 202 202 205 209 212 215 218 219 219 220 223 224 225 225 227 230
195 229 221 208 215 227 230 259 249 268 270 242 99 13 326 254 201 194 189 195 193 196 200 200 200 201 202 203 204 204 206 206 206 207 208 210 213 217 220 223 226 228 228 232 233 234 234 234 236
228 233 233 232 225 238 227 241 252 239 244 222 283 307 306 251 216 198 194 196 195 200 205 206 206 206 207 210 211 213 213 213 213 214 213 214 216 220 224 228 231 234 236 239 241 241 241 241 241
230 232 233 243 251 259 262 243 254 258 253 261 273 282 277 258 231 214 208 204 201 206 210 213 212 212 213 216 217 219 221 222 222 222 221 222 224 226 229 232 234 237 240 242 244 244 244 245 247
228 229 242 250 248 248 262 264 234 250 261 253 255 261 259 246 231 213 215 221 219 220 221 224 222 220 220 221 223 225 226 229 229 230 231 231 232 234 235 237 239 241 244 247 250 252 251 251 250
238 254 242 231 240 250 260 270 239 238 244 249 251 259 256 251 246 232 227 225 220 224 228 227 226 224 227 229 230 230 231 234 236 237 237 236 238 239 239 241 243 246 249 253 257 257 253 251 252
208 219 241 226 212 221 192 257 296 226 217 234 243 245 248 247 242 234 227 232 233 232 233 238 238 233 229 228 230 232 232 233 237 239 242 241 241 241 240 243 245 247 250 256 259 262 262 258 256
206 235 226 252 214 207 201 262 308 202 199 218 230 231 234 243 239 229 234 239 237 237 236 237 239 240 235 232 233 234 234 233 236 240 242 241 245 242 241 244 247 251 255 257 261 265 263 262 261
215 221 238 241 196 221 218 242 251 241 210 235 249 253 246 233 230 235 246 247 244 238 236 238 233 237 240 237 235 235 234 234 234 238 242 240 242 241 241 246 251 253 255 259 261 265 265 265 266
214 231 238 236 239 241 239 252 248 258 244 241 247 251 250 249 239 240 238 244 240 233 229 228 225 228 234 239 237 235 235 233 234 236 243 241 243 244 245 249 252 253 255 259 264 261 266 272 272
234 245 235 269 266 254 268 267 256 251 257 235 234 235 243 248 247 240 244 249 250 237 232 215 217 222 227 239 242 238 237 233 233 236 240 241 242 243 247 250 250 251 252 257 264 264 268 273 278
225 234 239 240 261 267 279 275 260 244 253 240 235 235 236 240 244 247 247 249 243 230 212 210 215 217 220 231 236 235 236 234 233 235 242 243 244 247 249 248 248 260 268 270 269 270 268 274 278
221 221 224 231 236 247 232 269 249 251 249 250 239 235 236 241 246 240 243 238 227 225 216 213 214 215 217 223 233 234 232 234 232 235 240 249 256 260 251 260 264 266 272 266 267 262 264 269 268
231 205 208 216 223 241 223 251 264 243 249 248 259 246 242 243 244 232 233 227 221 221 221 213 208 211 216 221 229 232 230 233 231 232 243 254 267 259 256 261 260 257 264 258 269 260 263 266 265
199 232 223 230 230 240 233 231 265 240 246 252 260 276 257 242 224 215 211 213 218 215 205 195 198 202 209 218 226 232 233 231 233 234 245 249 258 253 258 256 261 242 267 267 274 256 260 261 262
210 204 175 201 209 235 198 218 242 240 236 227 296 303 288 213 185 183 188 184 188 182 176 179 187 193 201 210 220 218 212 209 215 229 239 246 251 250 245 254 251 258 265 266 258 264 259 258 268
203 197 196 205 206 220 205 232 236 228 256 272 268 267 179 163 156 155 156 158 159 162 163 167 172 179 187 194 190 188 192 200 212 230 241 245 247 256 261 254 258 267 267 266 267 260 254 262 270
191 209 203 292 241 218 213 244 262 211 239 169 144 152 127 125 136 128 129 138 142 148 152 155 158 158 158 162 164 176 182 186 198 213 216 243 266 271 270 264 261 264 265 265 272 273 272 266 265
193 184 190 188 215 219 216 234 236 192 196 147 138 136 119 117 123 129 133 134 136 137 138 137 133 132 136 137 137 142 143 142 145 153 167 191 230 292 283 261 254 253 256 265 261 268 275 279 278
193 186 189 180 239 226 235 216 336 259 156 146 140 117 104 109 118 129 132 130 133 132 131 128 127 124 123 126 129 133 129 127 128 126 115 99 84 59 43 49 47 16 296 277 280 283 277 278 289
199 179 189 197 191 232 274 238 9 39 141 149 121 114 110 108 108 113 116 119 120 120 119 119 119 117 114 116 121 120 119 119 116 109 96 85 62 43 22 7 357 348 338 335 331 327 324 308 298